FW5955 Weather Reports


time (UTC)temp
F
wind
direction
speed
knots
gust
knots
rain 1hr
in
rain 24hr
in
rain mn
in
humidity
%
barometer
mb
20260509160018 54 236 6.1 11.3 0.00 0.00 0.00 60 1017.0
20260509154515 54 169 5.2 11.3 0.00 0.00 0.00 61 1016.8
20260509153024 55 240 7.8 13.0 0.00 0.00 0.00 57 1016.9
20260509151512 54 236 7.0 12.2 0.00 0.00 0.00 55 1016.9
20260509150009 54 227 6.1 12.2 0.00 0.00 0.00 61 1016.8
20260509144508 53 253 7.8 12.2 0.00 0.00 0.00 64 1016.7
20260509143007 54 293 5.2 10.4 0.00 0.00 0.00 64 1016.6
20260509141507 53 242 5.2 12.2 0.00 0.00 0.00 68 1016.5
20260509140002 53 238 7.8 11.3 0.00 0.00 0.00 65 1016.3
20260509134600 53 247 5.2 10.4 0.00 0.00 0.00 65 1016.2
20260509133105 53 248 6.1 9.6 0.00 0.00 0.00 65 1016.0
20260509131554 53 254 3.5 8.7 0.00 0.00 0.00 67 1015.7
20260509130055 52 250 4.3 8.7 0.00 0.00 0.00 67 1015.8
20260509124556 52 246 2.6 7.0 0.00 0.00 0.00 68 1015.5
20260509123054 52 220 2.6 5.2 0.00 0.00 0.00 70 1015.5
20260509121556 51 259 3.5 7.8 0.00 0.00 0.00 71 1015.4
20260509120044 52 233 3.5 6.1 0.00 0.00 0.00 70 1015.3
20260509114555 50 240 2.6 5.2 0.00 0.00 0.00 71 1015.2
20260509113040 51 188 2.6 5.2 0.00 0.00 0.00 73 1015.1
20260509111537 50 223 0.0 3.5 0.00 0.00 0.00 74 1014.8
20260509110033 49 254 0.9 3.5 0.00 0.00 0.00 74 1014.6
20260509104529 47 267 0.0 2.6 0.00 0.00 0.00 77 1014.3
20260509103025 46 234 0.0 1.7 0.00 0.00 0.00 82 1014.2
20260509101524 44 73 0.0 0.9 0.00 0.00 0.00 87 1014.0
20260509100019 42 32 0.0 0.9 0.00 0.00 0.00 91 1013.6
20260509094523 39 32 0.0 0.0 0.00 0.01 0.00 91 1013.2
20260509093015 39 32 0.0 0.9 0.00 0.01 0.00 90 1013.0
20260509091513 39 258 0.0 0.9 0.00 0.01 0.00 91 1012.7
20260509090031 38 270 0.0 1.7 0.00 0.01 0.00 91 1012.5
20260509084510 38 278 0.0 2.6 0.00 0.01 0.00 92 1012.4
20260509083018 38 264 0.0 0.9 0.00 0.01 0.00 92 1012.1
20260509081506 39 268 0.0 0.9 0.00 0.01 0.00 91 1012.0
20260509080002 40 307 0.0 2.6 0.00 0.01 0.00 91 1011.9
20260509074603 40 258 0.9 3.5 0.00 0.01 0.00 91 1011.7
20260509073113 40 265 0.9 3.5 0.00 0.01 0.00 91 1011.7
20260509071601 40 266 1.7 3.5 0.00 0.01 0.00 90 1011.6
20260509070059 40 254 0.9 3.5 0.00 0.01 0.00 90 1011.5
20260509064553 40 266 0.0 3.5 0.00 0.01 0.00 90 1011.3
20260509063102 40 275 0.9 2.6 0.00 0.01 0.00 89 1011.0
20260509061549 40 257 0.0 3.5 0.00 0.01 0.00 88 1010.9
20260509060049 41 248 0.9 3.5 0.00 0.01 0.00 88 1010.6
20260509054545 41 266 1.7 3.5 0.00 0.01 0.00 87 1010.5
20260509053046 41 268 0.9 2.6 0.00 0.01 0.00 87 1010.2
20260509051544 41 276 0.9 3.5 0.00 0.01 0.00 87 1010.0
20260509050050 40 277 0.9 3.5 0.00 0.01 0.00 87 1009.8
20260509044535 41 238 0.0 2.6 0.00 0.01 0.00 86 1009.6
20260509043039 41 259 0.0 0.9 0.00 0.01 0.00 86 1009.4
20260509041528 42 277 0.0 1.7 0.00 0.01 0.00 84 1009.3
20260509040026 42 270 0.0 1.7 0.00 0.01 0.00 84 1009.2
20260509034525 42 266 0.0 0.9 0.00 0.01 0.00 84 1009.0
20260509033029 42 270 0.0 0.9 0.00 0.01 0.00 83 1008.8
20260509031524 42 336 0.0 0.0 0.00 0.01 0.00 81 1008.7
20260509030021 43 336 0.0 0.0 0.00 0.01 0.00 79 1008.6
20260509024516 44 336 0.0 0.9 0.00 0.01 0.01 78 1008.4
20260509023015 45 336 0.0 1.7 0.00 0.01 0.01 77 1008.3
20260509021514 46 317 0.0 1.7 0.00 0.01 0.01 76 1008.2
20260509020011 46 333 0.0 3.5 0.00 0.01 0.01 76 1008.0
20260509014512 46 272 0.0 2.6 0.00 0.01 0.01 75 1007.9
20260509013009 47 271 0.0 2.6 0.00 0.01 0.01 74 1007.7
20260509011509 47 304 0.9 4.3 0.00 0.01 0.01 73 1007.3
20260509010011 47 278 0.0 2.6 0.00 0.01 0.01 71 1007.0
20260509004504 48 291 0.0 2.6 0.00 0.01 0.01 69 1006.8
20260509003102 49 252 0.9 4.3 0.00 0.01 0.01 68 1006.6
20260509001558 49 277 0.0 2.6 0.00 0.01 0.01 66 1006.2
20260509000054 50 249 0.9 3.5 0.00 0.01 0.01 64 1005.8
20260508234552 51 262 0.0 4.3 0.00 0.01 0.01 62 1005.5
20260508233049 52 317 0.0 3.5 0.00 0.01 0.01 59 1005.1
20260508231552 53 314 0.0 4.3 0.00 0.01 0.01 56 1004.7
20260508230042 54 255 0.9 5.2 0.00 0.01 0.01 53 1004.3
20260508224559 56 252 1.7 7.0 0.00 0.01 0.01 50 1004.0
20260508223038 56 301 1.7 7.0 0.00 0.01 0.01 48 1003.7
20260508221544 57 8 0.9 3.5 0.00 0.01 0.01 44 1003.3
20260508220132 58 231 0.9 7.0 0.00 0.01 0.01 41 1003.1
20260508214538 59 316 1.7 7.8 0.00 0.01 0.01 39 1002.9
20260508213033 60 143 0.9 6.1 0.00 0.01 0.01 41 1002.7
20260508211528 60 35 0.9 7.8 0.00 0.01 0.01 41 1002.5
20260508210027 58 99 0.0 4.3 0.00 0.01 0.01 44 1002.3
20260508204527 58 231 1.7 5.2 0.00 0.01 0.01 43 1002.2
20260508203026 59 253 2.6 6.1 0.00 0.01 0.01 42 1002.0
20260508201526 61 254 1.7 11.3 0.00 0.01 0.01 40 1001.8
20260508200037 62 248 2.6 9.6 0.00 0.01 0.01 42 1001.6
20260508194524 61 349 1.7 7.0 0.00 0.01 0.01 43 1001.6
20260508193023 62 252 1.7 7.0 0.00 0.01 0.01 43 1001.4
20260508191520 61 256 0.9 9.6 0.00 0.01 0.01 48 1001.3
20260508190020 59 253 8.7 13.9 0.00 0.01 0.01 47 1001.2
20260508184524 58 259 8.7 15.6 0.00 0.02 0.01 50 1001.2
20260508183013 58 264 7.0 14.8 0.00 0.02 0.01 51 1001.2
20260508181513 57 256 9.6 14.8 0.00 0.02 0.01 52 1001.4
20260508180010 57 300 6.1 13.0 0.00 0.02 0.01 55 1001.4
20260508174509 57 243 7.8 13.9 0.00 0.08 0.01 57 1001.6
20260508173014 57 246 7.0 14.8 0.00 0.08 0.01 59 1001.5
20260508171514 57 226 7.0 12.2 0.00 0.08 0.01 60 1001.7
20260508170006 57 255 6.1 13.0 0.00 0.08 0.01 61 1001.7
20260508164506 56 243 9.6 15.6 0.00 0.30 0.01 65 1001.9
20260508163005 56 248 7.0 13.9 0.00 0.30 0.01 67 1001.9
20260508161509 57 255 7.8 13.9 0.00 0.30 0.01 63 1001.9